Weather History for KHIO - June, 2008

Change the Weather History Date:

Friday, June 13, 2008

  Actual Average Record
Temperature  
Mean Temperature 59 °F 60 °F  
Max Temperature 74 °F 72 °F 96 °F (2002)
Min Temperature 43 °F 48 °F 36 °F (2001)
Degree Days  
Heating Degree Days 6 5  
Month to date heating degree days 142 81  
Since 1 July heating degree days 5484 4931  
Cooling Degree Days 0 0  
Month to date cooling degree days 0 3  
Year to date cooling degree days 22 9  
Growing Degree Days 8 (Base 50)    
Moisture  
Dew Point 45 °F    
Average Humidity 58    
Maximum Humidity 93    
Minimum Humidity 23    
Precipitation  
Precipitation 0.00 in 0.05 in 0.38 in (1965)
Month to date precipitation 0.31 0.71  
Year to date precipitation 13.35 20.20  
Snow  
Snow 0.00 in - - ()
Month to date snowfall 0.0  
Since 1 June snowfall  
Since 1 July snowfall 0.0  
Snow Depth 0.00 in    
Sea Level Pressure  
Sea Level Pressure 30.17 in    
Wind  
Wind Speed 6 mph (NNW)    
Max Wind Speed 18 mph    
Max Gust Speed 25 mph    
Visibility 10 miles    
Events      
T = Trace of Precipitation, MM = Missing Value Source: NWS Daily Summary

Daily Weather History Graph

Daily Weather History Graph

Search for Another Location

Airport or City:

Trip Planner

Search our weather history database for the weather conditions in past years. The results will help you decide how hot, cold, wet, or windy it might be!

Date:

Astronomy

Jun. 13, 2008 Rise Set
Actual Time 5:22 AM PDT 9:01 PM PDT
Civil Twilight 4:44 AM PDT 9:39 PM PDT
Nautical Twilight 3:53 AM PDT 10:30 PM PDT
Astronomical Twilight 2:45 AM PDT 11:39 PM PDT
Moon 4:42 PM PDT (6/13) 2:08 AM PDT (6/13)
Length of Visible Light 16h 55m
Length of Day
15h 39m
Waxing Gibbous, 79% of the Moon is Illuminated
Jun 13
Waxing Gibbous
Jun 18
Full
Jun 26
Last Quarter
Jul 2
New
Jul 9
First Quarter

Hourly Weather History & Observations

Time (PDT) Temp. Dew Point Humidity Pressure Visibility Wind Dir Wind Speed Gust Speed Precip Events Conditions
12:53 AM 52.0 °F 48.0 °F 86% 30.19 in 10.0 mi WNW 3.5 mph - N/A   Clear
1:53 AM 50.0 °F 46.9 °F 89% 30.19 in 10.0 mi NW 5.8 mph - N/A   Clear
2:53 AM 50.0 °F 46.0 °F 86% 30.18 in 10.0 mi Calm Calm - N/A   Clear
3:53 AM 46.0 °F 44.1 °F 93% 30.18 in 10.0 mi Calm Calm - N/A   Clear
4:53 AM 44.1 °F 43.0 °F 96% 30.18 in 10.0 mi Calm Calm - N/A   Clear
5:53 AM 44.1 °F 43.0 °F 96% 30.18 in 8.0 mi Calm Calm - N/A   Clear
6:53 AM 48.0 °F 46.9 °F 96% 30.19 in 10.0 mi Calm Calm - N/A   Partly Cloudy
7:53 AM 54.0 °F 48.0 °F 80% 30.20 in 10.0 mi Calm Calm - N/A   Partly Cloudy
8:53 AM 60.1 °F 46.0 °F 60% 30.21 in 10.0 mi Calm Calm - N/A   Partly Cloudy
9:53 AM 63.0 °F 44.1 °F 50% 30.20 in 10.0 mi Calm Calm - N/A   Clear
10:53 AM 64.9 °F 50.0 °F 58% 30.19 in 10.0 mi NW 4.6 mph - N/A   Clear
11:53 AM 68.0 °F 52.0 °F 56% 30.18 in 10.0 mi Variable 3.5 mph - N/A   Clear
12:53 PM 71.1 °F 54.0 °F 55% 30.16 in 10.0 mi NNE 4.6 mph - N/A   Partly Cloudy
1:53 PM 71.1 °F 52.0 °F 51% 30.15 in 10.0 mi WNW 4.6 mph - N/A   Mostly Cloudy
2:53 PM 72.0 °F 55.0 °F 55% 30.14 in 9.0 mi NE 8.1 mph - N/A   Mostly Cloudy
3:53 PM 73.0 °F 54.0 °F 51% 30.13 in 10.0 mi NE 8.1 mph - N/A   Partly Cloudy
4:53 PM 73.9 °F 33.1 °F 22% 30.13 in 10.0 mi NNW 11.5 mph - N/A   Clear
5:53 PM 71.1 °F 35.1 °F 27% 30.14 in 10.0 mi NW 13.8 mph - N/A   Clear
6:53 PM 68.0 °F 35.1 °F 30% 30.14 in 10.0 mi NW 15.0 mph - N/A   Clear
7:53 PM 63.0 °F 36.0 °F 37% 30.15 in 10.0 mi NW 18.4 mph 24.2 mph N/A   Clear
8:53 PM 59.0 °F 36.0 °F 42% 30.16 in 10.0 mi NNW 10.4 mph - N/A   Clear
9:53 PM 55.0 °F 39.9 °F 57% 30.18 in 10.0 mi NW 17.3 mph - N/A   Clear
10:53 PM 51.1 °F 41.0 °F 68% 30.20 in 10.0 mi NW 10.4 mph - N/A   Clear
11:53 PM 48.0 °F 39.9 °F 74% 30.22 in 10.0 mi NW 8.1 mph - N/A   Clear